GW1243 Weather Reports


time (UTC)temp
C
wind
direction
speed
KPH
gust
KPH
rain 1hr
cm
rain 24hr
cm
rain mn
cm
humidity
%
barometer
mb
20260504050521 12 315 17.7 33.8 0.00 0.00 0.00 85 1010.6
20260504045517 12 323 17.7 33.8 0.00 0.00 0.00 85 1010.4
20260504045020 12 342 16.1 35.4 0.00 0.00 0.00 84 1010.3
20260504044539 12 342 17.7 37.0 0.00 0.00 0.00 84 1010.4
20260504044020 12 309 22.5 37.0 0.00 0.00 0.00 83 1010.5
20260504043520 12 328 20.9 35.4 0.00 0.00 0.00 83 1010.4
20260504043035 12 306 20.9 35.4 0.00 0.00 0.00 83 1010.4
20260504042518 12 340 17.7 46.7 0.00 0.00 0.00 82 1010.3
20260504042022 12 333 25.7 46.7 0.00 0.00 0.00 81 1010.3
20260504041542 12 329 20.9 38.6 0.00 0.00 0.00 82 1010.3
20260504041019 12 355 16.1 37.0 0.00 0.00 0.00 82 1010.3
20260504040516 12 302 20.9 37.0 0.00 0.00 0.00 83 1010.2
20260504040058 12 338 20.9 37.0 0.00 0.00 0.00 84 1010.3
20260504035518 11 312 19.3 38.6 0.00 0.15 0.00 84 1010.3
20260504035017 11 304 17.7 38.6 0.00 0.15 0.00 84 1010.4
20260504034532 12 335 17.7 40.2 0.00 0.15 0.00 84 1010.4
20260504034017 12 335 20.9 40.2 0.00 0.15 0.00 84 1010.6
20260504033517 11 317 16.1 33.8 0.00 0.15 0.00 85 1010.6
20260504033037 11 333 14.5 33.8 0.00 0.15 0.00 85 1010.6
20260504032517 11 302 16.1 33.8 0.00 0.15 0.00 85 1010.7
20260504032017 11 308 14.5 33.8 0.00 0.15 0.00 84 1010.8
20260504031537 11 338 12.9 30.6 0.00 0.15 0.00 84 1010.8
20260504031016 11 310 14.5 33.8 0.00 0.15 0.00 83 1011.0
20260504030516 11 331 16.1 33.8 0.00 0.15 0.00 83 1010.9
20260504030034 11 295 20.9 33.8 0.00 0.15 0.00 83 1011.1
20260504025521 11 294 17.7 33.8 0.00 0.23 0.00 82 1011.1
20260504025018 11 293 16.1 33.8 0.00 0.23 0.00 82 1011.1
20260504024536 11 336 20.9 33.8 0.00 0.23 0.00 82 1011.2
20260504024018 11 338 12.9 41.8 0.00 0.23 0.00 82 1011.2
20260504023518 11 316 19.3 41.8 0.00 0.23 0.00 82 1011.3
20260504023037 11 314 16.1 30.6 0.00 0.23 0.00 82 1011.4
20260504022516 11 339 17.7 33.8 0.00 0.23 0.00 81 1011.4
20260504022017 11 293 19.3 33.8 0.00 0.23 0.00 81 1011.5
20260504021536 12 317 20.9 33.8 0.00 0.23 0.00 80 1011.4
20260504021021 12 322 17.7 37.0 0.00 0.23 0.00 80 1011.5
20260504020517 12 267 19.3 37.0 0.00 0.23 0.00 79 1011.5
20260504020032 12 334 17.7 40.2 0.00 0.23 0.00 78 1011.6
20260504015517 12 325 20.9 40.2 0.00 0.28 0.00 78 1011.6
20260504015017 12 302 17.7 33.8 0.00 0.28 0.00 77 1011.7
20260504014532 12 320 17.7 43.5 0.00 0.28 0.00 77 1011.8
20260504014016 12 329 20.9 43.5 0.00 0.28 0.00 78 1011.8
20260504013517 12 288 16.1 38.6 0.00 0.28 0.00 78 1011.9
20260504013038 12 330 24.1 41.8 0.00 0.28 0.00 79 1011.9
20260504012517 12 314 24.1 41.8 0.00 0.28 0.00 80 1011.9
20260504012017 12 327 22.5 41.8 0.00 0.28 0.00 81 1012.0
20260504011538 12 338 19.3 32.2 0.00 0.28 0.00 83 1011.9
20260504011018 11 340 17.7 40.2 0.00 0.28 0.00 83 1011.9
20260504010518 11 277 20.9 40.2 0.00 0.28 0.00 83 1012.0
20260504010037 11 336 20.9 38.6 0.00 0.28 0.00 84 1012.0
20260504005517 11 335 19.3 33.8 0.00 0.36 0.00 86 1012.1
20260504005040 11 324 16.1 33.8 0.00 0.36 0.00 87 1011.9
20260504004544 11 346 16.1 33.8 0.00 0.36 0.00 87 1011.9
20260504004020 11 317 19.3 33.8 0.00 0.36 0.00 88 1012.0
20260504003524 11 315 20.9 37.0 0.00 0.36 0.00 88 1012.0
20260504003047 10 315 19.3 37.0 0.00 0.36 0.00 89 1012.0
20260504002520 10 322 16.1 27.4 0.00 0.36 0.00 89 1012.0
20260504002020 10 317 17.7 27.4 0.00 0.36 0.00 90 1012.1
20260504001546 10 327 14.5 27.4 0.00 0.36 0.00 90 1012.1
20260504001020 10 342 20.9 27.4 0.00 0.36 0.00 91 1012.1
20260504000517 10 5 17.7 29.0 0.00 0.36 0.00 91 1012.1
20260504000037 10 344 17.7 29.0 0.00 0.36 0.00 92 1012.0
20260503235521 10 340 16.1 30.6 0.00 0.66 0.00 92 1012.1
20260503235019 9 26 14.5 30.6 0.00 0.66 0.00 92 1012.1
20260503234542 9 15 14.5 25.7 0.00 0.66 0.00 92 1012.3
20260503234020 9 343 14.5 25.7 0.00 0.66 0.00 92 1012.3
20260503233520 9 336 16.1 24.1 0.00 0.66 0.00 92 1012.4
20260503233041 9 321 11.3 24.1 0.00 0.66 0.00 92 1012.5
20260503232520 9 324 16.1 25.7 0.00 0.66 0.00 92 1012.4
20260503232021 8 304 9.7 25.7 0.00 0.66 0.00 93 1012.3
20260503231541 8 323 14.5 29.0 0.00 0.66 0.00 92 1012.4
20260503231021 8 346 14.5 29.0 0.00 0.66 0.00 93 1012.4
20260503230521 8 360 14.5 29.0 0.00 0.66 0.00 93 1012.4
20260503230040 8 355 16.1 29.0 0.00 0.66 0.00 93 1012.3
20260503225517 8 360 12.9 27.4 0.00 0.97 0.00 93 1012.4
20260503225021 8 316 12.9 25.7 0.00 0.97 0.00 93 1012.4
20260503224538 8 355 12.9 25.7 0.00 0.97 0.00 93 1012.3
20260503224017 8 324 12.9 27.4 0.00 0.97 0.00 93 1012.3
20260503223524 8 355 11.3 27.4 0.00 0.97 0.00 93 1012.4
20260503223042 8 300 12.9 22.5 0.00 0.97 0.00 93 1012.3
20260503222520 8 284 11.3 22.5 0.00 0.97 0.00 93 1012.3
20260503222020 8 323 11.3 25.7 0.00 0.97 0.00 93 1012.2
20260503221539 8 360 11.3 27.4 0.00 0.97 0.00 93 1012.1
20260503221020 8 298 14.5 27.4 0.00 0.97 0.00 93 1012.1
20260503220523 8 324 16.1 27.4 0.00 0.97 0.00 93 1012.1
20260503220039 8 331 12.9 27.4 0.00 0.97 0.00 92 1012.1
20260503215520 8 322 14.5 27.4 0.00 1.02 0.00 92 1012.1
20260503215020 8 317 12.9 24.1 0.00 1.02 0.00 92 1012.0
20260503214536 8 339 12.9 25.7 0.00 1.02 0.00 92 1012.0
20260503214017 8 342 14.5 25.7 0.00 1.02 0.00 92 1012.0
20260503213517 8 344 12.9 25.7 0.00 1.02 0.00 92 1012.1
20260503213033 8 328 16.1 25.7 0.00 1.02 0.00 92 1011.9
20260503212517 8 13 16.1 24.1 0.00 1.02 0.00 92 1011.9
20260503212018 8 355 12.9 22.5 0.00 1.02 0.00 92 1012.0
20260503211541 8 340 12.9 25.7 0.00 1.02 0.00 92 1012.0
20260503211025 8 321 12.9 25.7 0.00 1.02 0.00 92 1011.9
20260503210517 8 327 12.9 25.7 0.00 1.02 0.00 92 1011.9
20260503210037 8 323 12.9 25.7 0.00 1.02 0.00 92 1012.0
20260503205519 8 350 16.1 25.7 0.00 1.04 0.00 92 1011.9
20260503205016 8 340 12.9 24.1 0.00 1.04 0.00 92 1011.9
20260503204540 8 340 12.9 24.1 0.00 1.04 0.00 92 1011.9
20260503204021 8 319 12.9 24.1 0.00 1.04 0.00 92 1011.8
20260503203520 8 321 11.3 20.9 0.00 1.04 0.00 92 1011.6
20260503203035 8 13 12.9 20.9 0.00 1.04 0.00 91 1011.6
20260503202517 8 301 11.3 24.1 0.00 1.04 0.00 91 1011.6
20260503202017 8 329 12.9 24.1 0.00 1.04 0.00 92 1011.6
20260503201535 8 344 11.3 20.9 0.00 1.04 0.00 92 1011.6
20260503201016 8 288 12.9 20.9 0.00 1.04 0.00 92 1011.5
20260503200516 8 342 11.3 20.9 0.00 1.04 0.00 92 1011.6
20260503200038 8 332 11.3 20.9 0.00 1.04 0.00 92 1011.6
20260503195516 8 5 12.9 22.5 0.00 1.30 0.00 92 1011.6
20260503195016 8 349 11.3 22.5 0.00 1.30 0.00 92 1011.6
20260503194538 8 347 14.5 22.5 0.00 1.30 0.00 92 1011.5
20260503194016 8 349 14.5 22.5 0.00 1.30 0.00 92 1011.5
20260503193521 8 9 12.9 24.1 0.00 1.30 0.00 92 1011.4
20260503193043 8 342 11.3 24.1 0.00 1.30 0.00 92 1011.5
20260503192517 8 346 11.3 17.7 0.00 1.30 0.00 92 1011.3
20260503192019 8 348 9.7 20.9 0.00 1.30 0.00 93 1011.4
20260503191536 8 350 9.7 24.1 0.00 1.30 0.00 93 1011.3
20260503191021 8 311 11.3 24.1 0.00 1.30 0.00 93 1011.4
20260503190517 8 331 12.9 22.5 0.00 1.30 0.00 93 1011.5
20260503190033 8 328 14.5 22.5 0.00 1.30 0.00 93 1011.5
20260503185516 8 11 12.9 22.5 0.00 1.30 0.00 93 1011.6
20260503185017 8 334 12.9 22.5 0.00 1.30 0.00 93 1011.6
20260503184534 8 342 12.9 19.3 0.00 1.30 0.00 93 1011.6
20260503184019 8 355 11.3 20.9 0.00 1.30 0.00 94 1011.7
20260503183516 8 360 12.9 20.9 0.00 1.30 0.00 94 1011.7
20260503183050 8 355 11.3 22.5 0.00 1.30 0.00 94 1011.8
20260503182516 8 342 12.9 22.5 0.00 1.30 0.00 94 1011.7
20260503182018 8 335 14.5 22.5 0.00 1.30 0.00 94 1011.8
20260503181535 8 351 11.3 22.5 0.00 1.30 0.00 94 1011.8
20260503181017 8 334 12.9 22.5 0.00 1.30 0.00 94 1011.9
20260503180517 8 325 11.3 22.5 0.00 1.30 0.00 94 1011.9
20260503180038 8 351 12.9 24.1 0.00 1.30 0.00 94 1011.9
20260503175016 8 323 11.3 22.5 0.00 1.40 0.00 94 1011.9
20260503174537 8 328 11.3 22.5 0.00 1.40 0.00 94 1011.9
20260503174016 8 300 11.3 20.9 0.00 1.40 0.00 94 1012.1
20260503173516 8 347 11.3 22.5 0.00 1.40 0.00 94 1012.1
20260503173038 8 343 11.3 22.5 0.00 1.40 0.00 94 1012.1
20260503172516 8 327 11.3 22.5 0.00 1.40 0.00 94 1012.2
20260503172017 8 323 14.5 24.1 0.00 1.40 0.00 94 1012.3
20260503171532 8 335 14.5 24.1 0.00 1.40 0.00 94 1012.2
20260503171017 8 344 12.9 24.1 0.00 1.40 0.00 94 1012.3
20260503170517 8 323 14.5 24.1 0.00 1.40 0.00 94 1012.3
20260503150520 9 344 6.4 16.1 0.00 1.45 0.00 94 1012.9
20260503131024 9 338 12.9 22.5 0.00 1.45 1.45 93 1013.4
20260503130520 10 333 11.3 22.5 0.00 1.45 1.45 93 1013.5
20260503110519 10 341 11.3 22.5 0.00 1.52 1.45 93 1014.1
20260503081535 11 355 9.7 17.7 0.00 1.52 1.45 89 1012.6
20260503081016 11 338 8.0 14.5 0.00 1.52 1.45 88 1012.5
20260503080516 11 355 8.0 16.1 0.00 1.52 1.45 88 1012.4
20260503072519 12 315 6.4 16.1 0.00 1.52 1.45 85 1012.0
20260503072019 12 325 6.4 14.5 0.00 1.52 1.45 85 1012.0
20260503071537 12 325 4.8 16.1 0.00 1.52 1.45 85 1012.1
20260503071018 12 307 6.4 19.3 0.00 1.52 1.45 85 1012.2
20260503070517 12 297 9.7 19.3 0.00 1.52 1.45 84 1012.2